Location: Kellogg
(38.0159°N, 90.0546°W)
Time: 07:00:16
(UTC+00:00)

Hubble Space Telescope - Pass Details

Date: 19 August 2024
Orbit: 505 x 509 km, 28.5° (Epoch: 19 September)

Event Time Altitude Azimuth Distance (km) Brightness Sun altitude
Exits shadow 09:05:50 11° 134° (SE) 1,662 3.3 -23.9°
Drops below altitude 10° 09:06:00 10° 133° (SE) 1,709 3.4 -23.9°
Sets 09:08:39 0° 116° (ESE) 2,594 4.6 -23.5°
